Simultaneous Nadir Overpasses (SNOs) Predictions

Prediction of SNOs between GOES-16 and LANDSAT-8 Satellite Orbit:

Table of predicted SNOs for the next 14.0 days since TLE Epoch: 1/20/2024
Index Date Time (GOES-16) GOES-16 Lat,Lon LANDSAT-8 Lat,Lon Distance(km) Time Diff (sec)
1 01/20/2024 15:21:26 0.01, -75.22 0.39, -76.87 188.52 80
2 01/22/2024 15:06:34 0.00, -75.22 -0.29, -73.92 148.57 80
3 01/23/2024 03:30:37 -0.00, -75.21 -0.86, -79.10 443.43 80
4 01/24/2024 14:54:21 -0.00, -75.23 -0.93, -70.96 486.50 80
5 01/25/2024 03:18:24 -0.00, -75.22 -0.21, -76.14 105.26 80
6 01/27/2024 03:03:30 -0.01, -75.24 0.40, -73.17 234.20 80
7 01/27/2024 15:24:45 0.02, -75.26 0.70, -78.33 349.11 80
8 01/29/2024 15:15:11 0.03, -75.29 0.07, -75.36 8.97 80
9 01/31/2024 15:02:57 0.02, -75.33 -0.59, -72.40 332.69 80
10 02/01/2024 03:24:19 -0.03, -75.32 -0.53, -77.58 258.05 80
